Погода в Спасском

Россия / Челябинская область     53°42′11″N   59°11′56″E
темп.,
°C
ветер,
м/с
пор.,
м/с
влажн.,
%
обл.,
%
осадки,
мм/ч
давл.,
гПа
погр.,
м
11 мая, вт
вт1123:00+13всв36512 0.0 1024101
02:00+10всв22580 0.0 102420
05:00+9св22650 0.0 102613
08:00+13всв34470 0.0 1027291
11:00+17в44315 0.0 10271358
14:00+19вюв32255 0.0 10271806
17:00+20ююв212393 0.0 10271895
20:00+17ююв333357 0.0 102730
12 мая, ср
ср1223:00+14ююв113562 0.0 102810
02:00+13юз1138100 0.0 102910
05:00+12юз114297 0.0 102910
08:00+15зюз12370 0.0 1030188
11:00+20зюз22262 0.0 10291185
14:00+23юз11220 0.0 10281933
17:00+23зюз22200 0.0 10282148
20:00+20юз33310 0.0 102738
13 мая, чт
чт1323:00+16зюз223793 0.0 102821
02:00+14сз11445 0.0 102811
05:00+13ссз22525 0.0 102910
08:00+18ссз22465 0.0 1029195
11:00+23с223598 0.0 10281365
14:00+25сз22285 0.0 10272202
17:00+26з322630 0.0 10262318
20:00+23зюз23365 0.0 102625
14 мая, пт
пт1423:00+18сз114419 0.0 102711
02:00+16ссз225552 0.0 102712
05:00+15ссз11615 0.0 102811
08:00+19зсз11480 0.0 1028188
11:00+25юз34310 0.0 10271111
14:00+27юз44230 0.0 10262356
17:00+27юз34230 0.0 10252307
20:00+23ююз353464 0.0 102583
15 мая, сб
сб1523:00+18ссз2351100 0.0 102541
02:00+17ссз225890 0.0 102518
05:00+16ссз1163100 0.0 102611
08:00+20сз11505 0.0 1026204
11:00+25зюз22343 0.0 10251338
14:00+27зюз33240 0.0 10232221
17:00+27зюз22215 0.0 10222385
20:00+24ююз11311 0.0 102111